Location: Newark
(7.0858°N, 171.3717°E)
Time: 17:17:35
(UTC+00:00)

Altair - Pass Details

Date: 02 December 2020
Orbit: 1501 x 1682 km, 47.2° (Epoch: 20 January)

Event Time Altitude Azimuth Distance (km) Brightness Sun altitude
Exits shadow 15:44:36 48° 39° (NE) 1,930 7.9 -39.5°
Maximum altitude 15:45:06 48° 48° (NE) 1,924 8.0 -39.4°
Drops below altitude 10° 15:54:09 10° 120° (ESE) 3,775 10.3 -37.3°
Sets 15:57:26 0° 126° (SE) 4,786 11.0 -36.6°
